This is the latest recevied weather packets stored in our database for station/object SQ4IXR-4. If no packets are shown the sender has not sent any weather packets the latest 10 day(s).
| Time | Temp. | Humidity | Pressure | Rain* | Wind** | Luminosity | Snow |
|---|---|---|---|---|---|---|---|
| 1788108679 | 23.33° C | 50% | 1018 hPa | - | - | - | - |
| 1788107844 | 23.33° C | 48% | 1017.9 hPa | - | - | - | - |
| 1788107021 | 23.89° C | 47% | 1017.9 hPa | - | - | - | - |
| 1788106199 | 24.44° C | 46% | 1017.9 hPa | - | - | - | - |
| 1788105374 | 24.44° C | 44% | 1018.1 hPa | - | - | - | - |
| 1788104551 | 25° C | 43% | 1017.9 hPa | - | - | - | - |
| 1788103728 | 25° C | 43% | 1018 hPa | - | - | - | - |
| 1788102904 | 25° C | 43% | 1018.1 hPa | - | - | - | - |
| 1788102082 | 25.56° C | 41% | 1018.2 hPa | - | - | - | - |
| 1788101259 | 25.56° C | 41% | 1018.2 hPa | - | - | - | - |
| 1788100437 | 26.11° C | 42% | 1018.2 hPa | - | - | - | - |
| 1788099616 | 27.22° C | 40% | 1018.4 hPa | - | - | - | - |
| 1788098790 | 27.22° C | 39% | 1018.4 hPa | - | - | - | - |
| 1788097966 | 26.11° C | 40% | 1018.5 hPa | - | - | - | - |
| 1788097140 | 27.22° C | 38% | 1018.6 hPa | - | - | - | - |
| 1788096322 | 27.78° C | 37% | 1018.6 hPa | - | - | - | - |
| 1788095496 | 27.78° C | 37% | 1018.5 hPa | - | - | - | - |
| 1788094680 | 31.67° C | 30% | 1018.4 hPa | - | - | - | - |
| 1788093856 | 32.22° C | 30% | 1018.4 hPa | - | - | - | - |
| 1788093029 | 32.22° C | 30% | 1018.4 hPa | - | - | - | - |
| 1788092206 | 30° C | 32% | 1018.6 hPa | - | - | - | - |
| 1788091378 | 28.33° C | 35% | 1018.8 hPa | - | - | - | - |
| 1788090554 | 28.33° C | 36% | 1019 hPa | - | - | - | - |
| 1788089728 | 27.78° C | 39% | 1019.1 hPa | - | - | - | - |
| 1788088906 | 27.78° C | 38% | 1019.1 hPa | - | - | - | - |
* Rain since midnight (hover to see other rain measurements)
** Current wind speed in m/s (hover to see current wind gust speed)